Clarksville, TN

9:27 AM CST on December 14, 2017 (GMT -0600)
Outlaw

Weather History for KCKV - February, 2015

Change the Weather History Date:

Monday, February 23, 2015

  Actual Average Record
Temperature  
Mean Temperature 20 °F 42 °F  
Max Temperature 24 °F 53 °F 79 °F (1982)
Min Temperature 15 °F 32 °F 10 °F (1968)
Degree Days  
Heating Degree Days 45    
Month to date heating degree days 805  
Since 1 July heating degree days 3340  
Cooling Degree Days 0    
Month to date cooling degree days 0  
Year to date cooling degree days  
Moisture  
Dew Point 11 °F    
Average Humidity 67    
Maximum Humidity 74    
Minimum Humidity 59    
Precipitation  
Precipitation 0.00 in 0.14 in 1.90 in (1975)
Month to date precipitation 4.76 3.50  
Year to date precipitation 6.81  
Sea Level Pressure  
Sea Level Pressure 30.54 in    
Wind  
Wind Speed 14 mph (North)    
Max Wind Speed 24 mph    
Max Gust Speed 30 mph    
Visibility 10 miles    
Events      
T = Trace of Precipitation, MM = Missing Value Source: NWS Daily Summary

Daily Weather History Graph

Daily Weather History Graph

Search for Another Location

Airport or City:

Trip Planner

Search our weather history database for the weather conditions in past years. The results will help you decide how hot, cold, wet, or windy it might be!

Date:

Astronomy

Feb. 23, 2015 Rise Set
Actual Time 6:28 AM CST 5:38 PM CST
Civil Twilight 6:02 AM CST 6:04 PM CST
Nautical Twilight 5:32 AM CST 6:34 PM CST
Astronomical Twilight 5:02 AM CST 7:04 PM CST
Moon 9:28 AM CST (2/23) 11:16 PM CST (2/23)
Length of Visible Light 12h 01m
Length of Day
11h 09m
Waxing Crescent, 29% of the Moon is Illuminated
Feb 23
Waxing Crescent
Feb 25
First Quarter
Mar 5
Full
Mar 13
Last Quarter
Mar 20
New

Hourly Weather History & Observations

Time (CST) Temp. Windchill Dew Point Humidity Pressure Visibility Wind Dir Wind Speed Gust Speed Precip Events Conditions
12:39 AM 24.1 °F 11.5 °F 16.0 °F 71% 30.50 in 10.0 mi North 15.0 mph - N/A   Mostly Cloudy
12:52 AM 23.0 °F 9.2 °F 16.0 °F 74% 30.53 in 10.0 mi North 17.3 mph - N/A   Overcast
1:52 AM 21.9 °F 6.9 °F 12.9 °F 68% 30.53 in 10.0 mi North 19.6 mph - N/A   Overcast
2:52 AM 19.9 °F 4.3 °F 10.0 °F 65% 30.52 in 10.0 mi North 19.6 mph - N/A   Scattered Clouds
3:52 AM 19.0 °F 3.2 °F 8.1 °F 62% 30.55 in 10.0 mi North 19.6 mph - N/A   Partly Cloudy
4:52 AM 17.1 °F 3.0 °F 9.0 °F 71% 30.58 in 10.0 mi North 13.8 mph - N/A   Mostly Cloudy
5:52 AM 16.0 °F 0.1 °F 8.1 °F 71% 30.58 in 10.0 mi North 17.3 mph - N/A   Mostly Cloudy
6:52 AM 15.1 °F 1.1 °F 7.0 °F 70% 30.61 in 10.0 mi North 12.7 mph - N/A   Clear
7:52 AM 17.1 °F 1.0 °F 8.1 °F 68% 30.62 in 10.0 mi North 18.4 mph - N/A   Mostly Cloudy
8:52 AM 18.0 °F 2.6 °F 9.0 °F 68% 30.63 in 10.0 mi North 17.3 mph - N/A   Overcast
9:52 AM 19.0 °F 5.0 °F 10.9 °F 71% 30.63 in 10.0 mi North 15.0 mph - N/A   Scattered Clouds
10:52 AM 19.9 °F 5.7 °F 10.9 °F 68% 30.61 in 10.0 mi NNE 16.1 mph - N/A   Scattered Clouds
11:52 AM 21.0 °F 9.3 °F 12.0 °F 68% 30.61 in 10.0 mi North 11.5 mph - N/A   Clear
12:52 PM 21.0 °F 7.1 °F 10.9 °F 65% 30.60 in 10.0 mi North 16.1 mph - N/A   Scattered Clouds
1:52 PM 21.9 °F 8.2 °F 10.9 °F 63% 30.59 in 10.0 mi NNW 16.1 mph - N/A   Scattered Clouds
2:52 PM 21.9 °F 9.2 °F 10.0 °F 60% 30.57 in 10.0 mi North 13.8 mph - N/A   Clear
3:52 PM 23.0 °F 11.7 °F 10.9 °F 60% 30.53 in 10.0 mi North 11.5 mph - N/A   Clear
4:52 PM 21.9 °F 11.7 °F 10.9 °F 63% 30.52 in 10.0 mi North 9.2 mph - N/A   Mostly Cloudy
5:52 PM 21.9 °F 11.7 °F 12.0 °F 66% 30.51 in 10.0 mi North 9.2 mph - N/A   Overcast
6:52 PM 21.0 °F 9.3 °F 10.9 °F 65% 30.48 in 10.0 mi North 11.5 mph - N/A   Overcast
7:52 PM 21.0 °F 9.9 °F 10.0 °F 63% 30.46 in 10.0 mi North 10.4 mph - N/A   Overcast
8:52 PM 19.9 °F 8.6 °F 10.0 °F 65% 30.44 in 10.0 mi North 10.4 mph - N/A   Overcast
9:52 PM 19.0 °F 6.1 °F 10.9 °F 71% 30.44 in 10.0 mi North 12.7 mph - N/A   Mostly Cloudy
10:52 PM 19.0 °F 8.2 °F 10.0 °F 68% 30.38 in 10.0 mi North 9.2 mph - N/A   Overcast
11:52 PM 19.0 °F 7.5 °F 10.9 °F 71% 30.38 in 10.0 mi North 10.4 mph - N/A   Overcast